Location: Hamayl? Da??
(36.7028°N, 30.1716°E)
Time: 12:30:45
(UTC+00:00)

Cosmos 1656 Rocket - Pass Details

Date: 04 August 2024
Orbit: 792 x 846 km, 71.1° (Epoch: 11 September)

Event Time Altitude Azimuth Distance (km) Brightness Sun altitude
Rises 17:35:35 0° 196° (SSW) 3,302 6.7 -6.9°
Reaches altitude 10° 17:37:58 10° 195° (SSW) 2,383 5.9 -7.3°
Maximum altitude 17:43:25 78° 110° (ESE) 837 3.6 -8.3°
Drops below altitude 10° 17:48:59 10° 24° (NNE) 2,434 6.2 -9.2°
Sets 17:51:27 0° 24° (NNE) 3,380 6.9 -9.7°
